[[{"header":{"parameterUnit":"m.s-1","parameterCategory":2,"la1":30.2991,"la2":30.254,"lo1":-89.0895,"lo2":-89.0444,"dy":0.0017,"dx":0.0017,"nx":28,"ny":28,"refTime":"2024-02-19T09:00:00:Z","depth":"0","parameterNumber":2,"parameterNumberName":"U-component_of_CURRENTS"},"data":[0,0,0,0,0,0,0,0,0,0,0,0,0,0,0,0,0,0,0,0,0,0,0,0,0,0,0,0,0,0,0,0,0,0,0,0,0,0,0,0,0,0,0,0,0,0,0,0,0,0,0,0,0,0,0,0,0,0,0.2832,0.2832,0,0.2808,0.2808,0.2807,0.2776,0.2776,0.2775,0.2775,0.2764,0.2764,0.2765,0,0,0,0,0,0,0,0,0,0,0,0,0,0.306,0.3054,0.2832,0.2832,0.2832,0.2808,0.2808,0.2807,0.2776,0.2776,0.2775,0.2775,0.2764,0.2764,0.2765,0,0,0,0,0,0,0,0,0,0,0,0,0,0.299,0.3053,0.2832,0.2814,0.2812,0.2808,0.2808,0.2807,0.2776,0.2776,0.2775,0.2774,0.2764,0.2764,0.2765,0.278,0,0,0.2765,0.2765,0,0,0,0,0,0,0,0,0.2994,0.2981,0.2817,0.2815,0.2813,0.2795,0.2884,0.2799,0.2777,0.279,0.2775,0.2774,0.2777,0.2776,0.2772,0.278,0.2779,0.2765,0.2766,0.2766,0.2766,0,0,0,0,0,0,0,0.2998,0.2983,0.2822,0.2816,0.2814,0.2878,0.2865,0.2869,0.2787,0.2788,0.2786,0.2784,0.2775,0.2772,0.2772,0.2779,0.2765,0.2766,0.2766,0.2766,0.2816,0.2817,0,0,0,0,0,0,0.299,0.2986,0.2823,0.2821,0.2904,0.2874,0.286,0.2801,0.2787,0.2784,0.2785,0.2783,0.2772,0.2771,0.2771,0.2803,0.2766,0.2766,0.2766,0.2815,0.2817,0.2818,0,0,0,0,0,0,0.2994,0.2974,0.2824,0.2908,0.2893,0.2869,0.2805,0.2801,0.2799,0.2784,0.2781,0.2787,0.2771,0.2771,0.2783,0.2802,0.2766,0.2766,0.2814,0.2816,0.2817,0.2859,0,0,0,0,0,0,0.3,0.2974,0.2945,0.2905,0.2888,0.2828,0.2805,0.2801,0.2799,0.2796,0.2785,0.2783,0.2771,0.2783,0.2783,0.2802,0.2766,0.2812,0.2815,0.2817,0.2856,0.2862,0.2867,0,0,0,0,0,0.3007,0.2968,0.2942,0.2924,0.284,0.2829,0.2827,0.281,0.28,0.2805,0.2799,0.2783,0.2797,0.2784,0.2784,0.2803,0.2811,0.2814,0.2816,0.2854,0.2861,0.2867,0,0,0,0,0,0,0.3094,0.2959,0.2931,0.2862,0.285,0.2824,0.2829,0.2817,0.2815,0.2813,0.2798,0.2796,0.2816,0.2807,0.2793,0.2826,0.2803,0.2805,0.2831,0.2837,0.2843,0.2854,0.2767,0,0,0,0,0,0.3087,0.299,0.2933,0.2889,0.2877,0.2855,0.2853,0.2839,0.2828,0.2826,0.2817,0.2816,0.2828,0.283,0.2835,0.2852,0.2858,0.2865,0.2871,0.2875,0.2886,0.292,0.2929,0.2827,0.2827,0.2827,0,0,0.3114,0.303,0.2982,0.2898,0.2884,0.2875,0.2852,0.2846,0.2849,0.2827,0.2834,0.2836,0.2839,0.2858,0.2866,0.2851,0.2908,0.2879,0.2883,0.2891,0.2924,0.2933,0.2942,0.2829,0.2828,0.2828,0,0,0.3123,0.3043,0.297,0.2954,0.2915,0.2903,0.2902,0.2874,0.2871,0.2881,0.2871,0.2888,0.2893,0.2901,0.2907,0.2949,0.2939,0.2947,0.2979,0.3012,0.3021,0.3028,0.3047,0.3056,0.2946,0.2946,0.2946,0,0.3176,0.3051,0.2974,0.2936,0.293,0.2915,0.2904,0.2908,0.2894,0.2904,0.289,0.2923,0.2918,0.2956,0.2967,0.2962,0.2973,0.2952,0.3019,0.3027,0.3034,0.3052,0.3061,0.2948,0.2948,0.2948,0.2947,0,0.3116,0.3059,0.3039,0.295,0.2953,0.2943,0.2935,0.2945,0.2944,0.2949,0.2984,0.2985,0.3005,0.3008,0.2999,0.3049,0.3038,0.3025,0.3001,0.3047,0.3063,0.3072,0.2951,0.2951,0.295,0.2949,0,0,0.3129,0.3007,0.3007,0.2977,0.2951,0.2945,0.2972,0.2982,0.3003,0.3015,0.3045,0.3073,0.3078,0.3086,0.308,0.3105,0.3159,0.3086,0.3087,0.3103,0.3226,0.3182,0.3188,0.3157,0.3159,0.3161,0.3215,0,0.3116,0.3027,0.2979,0.2968,0.2938,0.295,0.2975,0.3001,0.3026,0.3058,0.3088,0.3114,0.3108,0.3115,0.3147,0.3158,0.3186,0.3145,0.3181,0.3182,0.3137,0.3198,0.3088,0.3124,0.3224,0.3225,0.3226,0,0.3055,0.3007,0.2956,0.2939,0.2933,0.294,0.2977,0.3,0.3065,0.309,0.3144,0.3161,0.3214,0.3189,0.3258,0.3233,0.3238,0.3243,0.3245,0.3198,0.3156,0.3096,0.3137,0.3048,0.324,0.3239,0.3238,0,0.3041,0.2995,0.2942,0.2935,0.2922,0.293,0.295,0.3011,0.3048,0.3116,0.3159,0.3216,0.3254,0.3283,0.331,0.3285,0.3378,0.334,0.3309,0.3305,0.3216,0.3201,0.3173,0.339,0.3389,0.3389,0.3389,0,0.2997,0.2968,0.2929,0.2903,0.2899,0.2913,0.2941,0.2979,0.3059,0.3102,0.3173,0.3222,0.3282,0.3339,0.334,0.3369,0.341,0.3334,0.3326,0.3226,0.3212,0.3132,0.3086,0.3391,0.3391,0.339,0.339,0,0.295,0.2914,0.2871,0.2864,0.2871,0.2871,0.293,0.2957,0.3048,0.3111,0.3137,0.3256,0.3323,0.3379,0.343,0.3412,0.3332,0.3422,0.3297,0.3273,0.3127,0.3088,0.2963,0.288,0.3385,0.3385,0.3384,0,0.2886,0.2853,0.2839,0.2828,0.2815,0.2834,0.2848,0.2935,0.2976,0.3115,0.3138,0.3253,0.3311,0.3407,0.3398,0.3415,0.331,0.3302,0.3229,0.3122,0.3074,0.2954,0.2885,0.3126,0.3124,0.3122,0.312,0,0.281,0.2808,0.2783,0.2766,0.2762,0.2769,0.2803,0.2841,0.2936,0.3002,0.3102,0.3172,0.3289,0.3271,0.331,0.3298,0.3135,0.3256,0.3183,0.2906,0.2737,0.2653,0.3083,0.3101,0.3103,0.3104,0.3105,0.3106,0.2764,0.2741,0.2721,0.2692,0.2692,0.2687,0.2663,0.2724,0.2773,0.2838,0.2982,0.304,0.3118,0.3168,0.3139,0.3023,0.3006,0.2912,0.2887,0.2786,0.2657,0.3045,0.3029,0.303,0.3032,0.3033,0.3034,0,0.2694,0.2676,0.2652,0.2607,0.2563,0.2597,0.2607,0.257,0.2569,0.2685,0.2762,0.2832,0.2821,0.2858,0.2806,0.2682,0.2561,0.2586,0.2395,0.2356,0.274,0.2681,0.2544,0.2544,0.2544,0.2544,0.2544,0.2545,0.2659,0.2606,0.2583,0.2481,0.2448,0.2363,0.234,0.2318,0.2367,0.2379,0.2417,0.2501,0.2617,0.2586,0.2465,0.2407,0.2218,0.2099,0.2095,0.2374,0.2402,0.2429,0.2363,0.2161,0.2161,0.1622,0.1617,0.1614]},{"header":{"parameterUnit":"m.s-1","parameterCategory":2,"la1":30.2991,"la2":30.254,"lo1":-89.0895,"lo2":-89.0444,"dy":0.0017,"dx":0.0017,"nx":28,"ny":28,"refTime":"2024-02-19T09:00:00:Z","depth":"0","parameterNumber":3,"parameterNumberName":"V-component_of_CURRENTS"},"data":[0,0,0,0,0,0,0,0,0,0,0,0,0,0,0,0,0,0,0,0,0,0,0,0,0,0,0,0,0,0,0,0,0,0,0,0,0,0,0,0,0,0,0,0,0,0,0,0,0,0,0,0,0,0,0,0,0,0,0.0184,0.0184,0,0.0143,0.0142,0.0142,0.011,0.0109,0.0109,0.0109,0.0058,0.0057,0.0056,0,0,0,0,0,0,0,0,0,0,0,0,0,0.014,0.0142,0.0184,0.0184,0.0183,0.0143,0.0142,0.0142,0.011,0.0109,0.0109,0.0109,0.0058,0.0057,0.0056,0,0,0,0,0,0,0,0,0,0,0,0,0,0.0134,0.0142,0.0184,0.0163,0.0161,0.0143,0.0142,0.0141,0.011,0.0109,0.0109,0.0109,0.0059,0.0057,0.0055,0.005,0,0,0.005,0.0049,0,0,0,0,0,0,0,0,0.0135,0.0136,0.0167,0.0165,0.0162,0.0132,0.0108,0.0111,0.011,0.0128,0.0109,0.0109,0.0083,0.0079,0.007,0.0048,0.0046,0.005,0.0049,0.0048,0.0048,0,0,0,0,0,0,0,0.0135,0.0137,0.0167,0.0167,0.0164,0.0124,0.0123,0.0108,0.0106,0.0126,0.0124,0.0122,0.0081,0.0072,0.0069,0.0045,0.005,0.0048,0.0047,0.0047,0.0021,0.0021,0,0,0,0,0,0,0.0149,0.0138,0.0168,0.0165,0.0149,0.0125,0.0125,0.0141,0.0107,0.0102,0.0122,0.0121,0.0075,0.0071,0.0067,0.0076,0.0048,0.0046,0.0045,0.002,0.0021,0.0021,0,0,0,0,0,0,0.0148,0.0153,0.017,0.015,0.015,0.0127,0.0145,0.0141,0.0134,0.0104,0.0098,0.0121,0.0075,0.007,0.006,0.0073,0.0046,0.0044,0.002,0.0021,0.0021,0.0083,0,0,0,0,0,0,0.0148,0.0153,0.0166,0.0152,0.0152,0.0166,0.0146,0.014,0.0134,0.0131,0.0101,0.0096,0.0074,0.0062,0.0058,0.007,0.0043,0.0019,0.002,0.0021,0.0081,0.0086,0.009,0,0,0,0,0,0.0147,0.0167,0.0168,0.0171,0.0172,0.0167,0.0163,0.0143,0.0134,0.0135,0.0116,0.0097,0.0063,0.0061,0.0056,0.0068,0.0019,0.002,0.0021,0.0079,0.0085,0.009,0,0,0,0,0,0,0.0135,0.0165,0.0166,0.0189,0.0182,0.0162,0.016,0.0149,0.0134,0.0131,0.0102,0.0096,0.009,0.0071,0.0069,0.0062,0.0038,0.0038,0.0084,0.0089,0.0094,0.0113,0.0041,0,0,0,0,0,0.0146,0.0181,0.0182,0.0198,0.02,0.0182,0.0176,0.0166,0.0151,0.0144,0.0124,0.0103,0.0088,0.0083,0.0063,0.0063,0.0041,0.0066,0.0071,0.0075,0.0086,0.0064,0.0068,0.0024,0.0024,0.0024,0,0,0.0142,0.0164,0.018,0.0199,0.0193,0.0207,0.0178,0.0176,0.0184,0.0141,0.0144,0.0117,0.009,0.0088,0.0084,0.0075,0.0076,0.0076,0.008,0.0089,0.0065,0.007,0.0074,0.0025,0.0024,0.0024,0,0,0.0158,0.0177,0.0213,0.0219,0.0224,0.0219,0.0224,0.0211,0.0203,0.02,0.0173,0.0158,0.0134,0.0122,0.0112,0.0132,0.0098,0.0122,0.0167,0.0146,0.0149,0.0152,0.013,0.0131,0.0129,0.0129,0.0129,0,0.0149,0.0204,0.0213,0.0243,0.0254,0.0233,0.0258,0.0249,0.0232,0.0235,0.021,0.018,0.0153,0.016,0.0164,0.0145,0.0124,0.015,0.0153,0.0156,0.0158,0.0134,0.0134,0.0132,0.0132,0.0132,0.0132,0,0.0195,0.0233,0.0249,0.0297,0.0304,0.032,0.0317,0.0318,0.0305,0.0298,0.0291,0.0248,0.0235,0.022,0.0198,0.0204,0.0181,0.0158,0.0142,0.0166,0.0139,0.0138,0.0137,0.0136,0.0135,0.0134,0,0,0.0197,0.0272,0.0278,0.0316,0.0339,0.0353,0.0369,0.0387,0.0413,0.0375,0.0397,0.0357,0.0331,0.0318,0.0282,0.0261,0.0251,0.0222,0.0219,0.0206,0.0202,0.0188,0.0185,0.0227,0.0227,0.0227,0.0178,0,0.0231,0.0311,0.0334,0.0397,0.0438,0.0433,0.0456,0.0465,0.0464,0.0477,0.0429,0.0429,0.037,0.0363,0.0334,0.0274,0.025,0.0266,0.0175,0.0173,0.0163,0.0184,0.0211,0.017,0.0176,0.0176,0.0176,0,0.0277,0.0332,0.0406,0.0476,0.0491,0.0517,0.0565,0.0586,0.0594,0.0588,0.0574,0.0534,0.0501,0.0441,0.0354,0.0366,0.0293,0.0238,0.0234,0.0201,0.0157,0.0146,0.0166,0.0077,0.0173,0.0173,0.0174,0,0.0305,0.0384,0.0453,0.0475,0.0542,0.0566,0.0596,0.0622,0.0662,0.0664,0.0686,0.0627,0.0607,0.0508,0.0387,0.0371,0.0285,0.0247,0.0166,0.0163,0.0159,0.0157,0.009,0.0185,0.0186,0.0186,0.0186,0,0.0351,0.0405,0.0474,0.0516,0.0596,0.0615,0.0695,0.0712,0.0752,0.0812,0.0752,0.0777,0.0622,0.0551,0.0424,0.0299,0.0312,0.0182,0.0154,0.0181,0.0181,0.008,0.0004,0.0184,0.0184,0.0185,0.0185,0,0.0379,0.0423,0.0512,0.059,0.0619,0.0677,0.0771,0.0829,0.0853,0.0926,0.0928,0.0892,0.0802,0.0645,0.0487,0.0362,0.0172,0.018,0.0221,0.0198,0.0035,-0.0039,-0.0152,-0.0197,0.0085,0.0084,0.0084,0,0.0405,0.0456,0.0569,0.0627,0.0667,0.0755,0.0821,0.0875,0.0948,0.1004,0.1047,0.0985,0.0972,0.0744,0.0506,0.0289,0.0168,0.0155,0.0126,0.004,-0.0063,-0.0109,-0.0141,0.014,0.014,0.014,0.014,0,0.0457,0.0495,0.0569,0.0689,0.0772,0.0876,0.0974,0.1047,0.111,0.1182,0.1255,0.125,0.1036,0.0851,0.0542,0.0372,0.0093,0.0148,0.0051,-0.0028,-0.0073,-0.0134,0.0153,0.0141,0.0141,0.0141,0.0141,0.0141,0.0492,0.0549,0.0648,0.0759,0.0859,0.0983,0.1075,0.1189,0.1321,0.1435,0.1415,0.1457,0.1161,0.0765,0.0524,0.0117,0.0091,-0.0001,-0.0083,-0.0121,-0.016,0.0128,0.0087,0.0087,0.0086,0.0086,0.0086,0,0.0539,0.0607,0.0711,0.0848,0.0957,0.1006,0.1169,0.1275,0.1441,0.1557,0.1633,0.1538,0.1184,0.079,0.0234,-0.0046,-0.0149,-0.0208,-0.0261,-0.0285,-0.0027,-0.0018,-0.0072,-0.0072,-0.0072,-0.0072,-0.0072,-0.0072,0.0568,0.0668,0.0722,0.0903,0.0998,0.115,0.1246,0.1418,0.1552,0.1724,0.1781,0.1789,0.15,0.0528,-0.0116,-0.028,-0.0442,-0.0497,-0.0594,-0.0412,-0.0398,-0.0385,-0.0391,-0.0524,-0.0524,-0.0784,-0.0787,-0.0789]}],[{"header":{"parameterUnit":"m.s-1","parameterCategory":2,"la1":30.2991,"la2":30.254,"lo1":-89.0895,"lo2":-89.0444,"dy":0.0017,"dx":0.0017,"nx":28,"ny":28,"refTime":"2024-02-19T09:00:00:Z","depth":"2","parameterNumber":2,"parameterNumberName":"U-component_of_CURRENTS"},"data":[0,0,0,0,0,0,0,0,0,0,0,0,0,0,0,0,0,0,0,0,0,0,0,0,0,0,0,0,0,0,0,0,0,0,0,0,0,0,0,0,0,0,0,0,0,0,0,0,0,0,0,0,0,0,0,0,0,0,0.2331,0.2331,0,0.2325,0.2325,0.2325,0.2308,0.2307,0.2307,0.2307,0.2302,0.2302,0.2302,0,0,0,0,0,0,0,0,0,0,0,0,0,0.2332,0.2332,0.2331,0.2331,0.2331,0.2325,0.2325,0.2325,0.2308,0.2307,0.2307,0.2307,0.2302,0.2302,0.2302,0,0,0,0,0,0,0,0,0,0,0,0,0,0.2327,0.2332,0.2331,0.2323,0.2323,0.2325,0.2325,0.2325,0.2308,0.2307,0.2307,0.2307,0.2302,0.2302,0.2302,0.2308,0,0,0.2302,0.2302,0,0,0,0,0,0,0,0,0.2328,0.2327,0.2324,0.2324,0.2323,0.2319,0.2324,0.232,0.2308,0.2311,0.2307,0.2307,0.2309,0.2309,0.2305,0.2307,0.2307,0.2302,0.2302,0.2302,0.2302,0,0,0,0,0,0,0,0.2328,0.2327,0.2326,0.2325,0.2324,0.2322,0.2321,0.2323,0.231,0.2311,0.231,0.2313,0.2308,0.2305,0.2305,0.2307,0.2302,0.2302,0.2302,0.2302,0.2354,0.2356,0,0,0,0,0,0,0.2333,0.2328,0.2327,0.2326,0.2327,0.2323,0.2321,0.2319,0.231,0.2309,0.2313,0.2312,0.2305,0.2305,0.2305,0.2343,0.2302,0.2302,0.2302,0.2353,0.2355,0.2356,0,0,0,0,0,0,0.2333,0.2333,0.2327,0.2329,0.2328,0.2323,0.232,0.2319,0.2324,0.2312,0.2311,0.2321,0.2305,0.2305,0.2319,0.2341,0.2302,0.2302,0.2351,0.2354,0.2355,0.2399,0,0,0,0,0,0,0.2333,0.2333,0.2339,0.2329,0.2329,0.2337,0.2321,0.2319,0.2327,0.2325,0.2319,0.2317,0.2305,0.232,0.232,0.2341,0.2302,0.235,0.2352,0.2355,0.2396,0.2403,0.2408,0,0,0,0,0,0.2333,0.2339,0.2339,0.2339,0.2335,0.2338,0.2338,0.2331,0.2328,0.2334,0.2333,0.2318,0.2336,0.2321,0.232,0.2342,0.2348,0.2352,0.2355,0.2394,0.2401,0.2408,0,0,0,0,0,0,0.2338,0.2338,0.2337,0.2342,0.2346,0.2336,0.2343,0.234,0.2344,0.2345,0.2332,0.2331,0.2355,0.2345,0.2329,0.2367,0.2341,0.2345,0.2371,0.2379,0.2384,0.2395,0.2302,0,0,0,0,0,0.2345,0.2353,0.235,0.2357,0.2359,0.2355,0.2358,0.2355,0.2355,0.2355,0.2351,0.2353,0.2366,0.2369,0.2375,0.2392,0.2395,0.2408,0.2414,0.2419,0.2429,0.2459,0.2469,0.2366,0.2366,0.2366,0,0,0.2351,0.2352,0.2357,0.2361,0.2361,0.2369,0.2355,0.2364,0.2375,0.2356,0.2371,0.2375,0.2377,0.2399,0.2409,0.2393,0.245,0.2423,0.2427,0.2435,0.2463,0.2473,0.2482,0.2368,0.2368,0.2368,0,0,0.2361,0.2366,0.2374,0.2381,0.2388,0.2387,0.2394,0.2392,0.2396,0.2414,0.2409,0.2429,0.2436,0.2445,0.2451,0.2496,0.2484,0.2497,0.2532,0.2561,0.2569,0.2577,0.2591,0.26,0.2496,0.2496,0.2496,0,0.2366,0.2371,0.2378,0.2387,0.2394,0.2399,0.2407,0.2418,0.2422,0.2437,0.2427,0.2465,0.2462,0.2501,0.2515,0.251,0.2519,0.2501,0.2568,0.2576,0.2583,0.2596,0.2605,0.2499,0.2499,0.2498,0.2498,0,0.2378,0.2387,0.2393,0.2406,0.242,0.2428,0.2443,0.2461,0.2469,0.2482,0.2524,0.2527,0.2551,0.2556,0.2548,0.26,0.2588,0.2574,0.2548,0.2596,0.2606,0.2615,0.2502,0.2502,0.2501,0.25,0,0,0.2365,0.2393,0.2395,0.2401,0.2428,0.2434,0.2471,0.2499,0.2527,0.2549,0.2585,0.2616,0.2626,0.2634,0.2632,0.2655,0.2707,0.2637,0.2638,0.2648,0.2766,0.2708,0.2711,0.2705,0.2707,0.2708,0.2752,0,0.2365,0.2383,0.24,0.242,0.2427,0.2454,0.2486,0.2523,0.2555,0.2594,0.2626,0.266,0.2654,0.2667,0.2696,0.2707,0.2732,0.2696,0.2722,0.2722,0.2662,0.272,0.2497,0.2513,0.276,0.2762,0.2763,0,0.2359,0.2374,0.239,0.2421,0.2427,0.2446,0.2499,0.253,0.2602,0.2633,0.269,0.271,0.2764,0.274,0.2803,0.2781,0.2783,0.2786,0.2787,0.2724,0.268,0.2507,0.2519,0.2777,0.2775,0.2774,0.2774,0,0.2333,0.2362,0.2372,0.2383,0.2424,0.2443,0.2473,0.2544,0.2587,0.2665,0.2709,0.2769,0.2807,0.2832,0.2852,0.2831,0.2908,0.2874,0.2825,0.2821,0.2632,0.2607,0.2918,0.2918,0.2918,0.2917,0.2917,0,0.2312,0.2318,0.236,0.2363,0.2385,0.2428,0.2472,0.2518,0.2606,0.2655,0.2728,0.2775,0.2835,0.2882,0.288,0.289,0.2937,0.2848,0.2837,0.264,0.2617,0.2843,0.2834,0.2919,0.2919,0.2918,0.2918,0,0.2266,0.2295,0.2304,0.235,0.2368,0.2385,0.2467,0.2501,0.2599,0.2667,0.2696,0.2808,0.2864,0.2912,0.2954,0.2926,0.2932,0.2918,0.2681,0.2642,0.2813,0.2806,0.2864,0.2863,0.2861,0.286,0.286,0,0.2238,0.2241,0.2284,0.2294,0.2309,0.2354,0.2381,0.2483,0.2528,0.2668,0.269,0.2794,0.2836,0.2905,0.2873,0.2871,0.2922,0.265,0.2569,0.283,0.2813,0.2807,0.2802,0.2332,0.2327,0.2322,0.2319,0,0.2185,0.2203,0.2215,0.2239,0.226,0.2288,0.2342,0.238,0.2488,0.2552,0.2636,0.2689,0.2769,0.2669,0.2684,0.2647,0.2632,0.2564,0.2907,0.2385,0.2332,0.2314,0.2326,0.2282,0.2285,0.2288,0.229,0.2292,0.2142,0.2137,0.2161,0.2167,0.2193,0.2201,0.2191,0.2254,0.2304,0.236,0.2484,0.2481,0.251,0.2423,0.2343,0.2279,0.2459,0.2324,0.2335,0.235,0.2287,0.2235,0.2153,0.2156,0.2158,0.2161,0.2163,0,0.2075,0.2081,0.2088,0.2084,0.2063,0.2114,0.2136,0.21,0.2091,0.2178,0.2226,0.2056,0.1996,0.2025,0.1871,0.1867,0.1832,0.1781,0.1702,0.1743,0.1778,0.1681,0.1389,0.1386,0.1384,0.1381,0,0,0.2043,0.2016,0.201,0.1947,0.1945,0.1883,0.1868,0.1834,0.1856,0.1822,0.1805,0.1946,0.1994,0.1673,0.1625,0.1477,0.1601,0.1422,0.205,0.2001,0.2033,0.2105,0.2005,0,0,0,0,0]},{"header":{"parameterUnit":"m.s-1","parameterCategory":2,"la1":30.2991,"la2":30.254,"lo1":-89.0895,"lo2":-89.0444,"dy":0.0017,"dx":0.0017,"nx":28,"ny":28,"refTime":"2024-02-19T09:00:00:Z","depth":"2","parameterNumber":3,"parameterNumberName":"V-component_of_CURRENTS"},"data":[0,0,0,0,0,0,0,0,0,0,0,0,0,0,0,0,0,0,0,0,0,0,0,0,0,0,0,0,0,0,0,0,0,0,0,0,0,0,0,0,0,0,0,0,0,0,0,0,0,0,0,0,0,0,0,0,0,0,0.024,0.0239,0,0.0203,0.0203,0.0202,0.0176,0.0175,0.0175,0.0175,0.0132,0.0131,0.013,0,0,0,0,0,0,0,0,0,0,0,0,0,0.0228,0.0228,0.024,0.0239,0.0239,0.0203,0.0203,0.0202,0.0176,0.0175,0.0175,0.0175,0.0133,0.0131,0.013,0,0,0,0,0,0,0,0,0,0,0,0,0,0.0216,0.0229,0.024,0.0222,0.022,0.0203,0.0203,0.0202,0.0176,0.0175,0.0175,0.0175,0.0133,0.0132,0.013,0.0126,0,0,0.0126,0.0125,0,0,0,0,0,0,0,0,0.0217,0.0216,0.0225,0.0223,0.0221,0.0194,0.0183,0.0176,0.0176,0.0192,0.0175,0.0175,0.0153,0.015,0.0143,0.0124,0.0122,0.0125,0.0125,0.0124,0.0124,0,0,0,0,0,0,0,0.0218,0.0217,0.0225,0.0225,0.0222,0.0195,0.0194,0.0181,0.0174,0.0191,0.0189,0.0185,0.0152,0.0144,0.0142,0.0122,0.0126,0.0124,0.0123,0.0123,0.01,0.01,0,0,0,0,0,0,0.0227,0.0219,0.0226,0.0224,0.0219,0.0196,0.0194,0.0203,0.0174,0.017,0.0186,0.0184,0.0147,0.0143,0.014,0.0146,0.0124,0.0123,0.0122,0.01,0.01,0.01,0,0,0,0,0,0,0.0227,0.0228,0.0227,0.022,0.0218,0.0197,0.0206,0.0202,0.0197,0.0171,0.0166,0.0185,0.0147,0.0142,0.0134,0.0144,0.0122,0.0121,0.0099,0.01,0.01,0.015,0,0,0,0,0,0,0.0227,0.0229,0.0236,0.0221,0.0219,0.0223,0.0206,0.0201,0.0195,0.0193,0.0168,0.0164,0.0146,0.0137,0.0133,0.0141,0.0119,0.0099,0.01,0.01,0.0148,0.0153,0.0156,0,0,0,0,0,0.0227,0.0239,0.0237,0.0237,0.0231,0.0224,0.022,0.0203,0.0195,0.0197,0.0181,0.0165,0.0137,0.0136,0.0131,0.014,0.0099,0.0099,0.01,0.0147,0.0152,0.0156,0,0,0,0,0,0,0.023,0.0237,0.0234,0.0247,0.0239,0.022,0.0218,0.0208,0.0196,0.0194,0.017,0.0164,0.0159,0.0143,0.0142,0.0134,0.0115,0.0114,0.0152,0.0156,0.016,0.0176,0.0118,0,0,0,0,0,0.0238,0.0254,0.0247,0.0255,0.0254,0.0238,0.0232,0.0223,0.021,0.0204,0.0187,0.017,0.0157,0.0152,0.0136,0.0135,0.0113,0.0136,0.014,0.0143,0.0152,0.0126,0.0129,0.0102,0.0102,0.0102,0,0,0.0238,0.0246,0.0252,0.0258,0.0249,0.0259,0.0234,0.0231,0.0238,0.0202,0.0204,0.0181,0.0159,0.0156,0.0152,0.0145,0.0139,0.0144,0.0147,0.0155,0.0127,0.013,0.0132,0.0103,0.0103,0.0103,0,0,0.0252,0.0258,0.0277,0.0278,0.0276,0.0271,0.0274,0.0261,0.0254,0.0252,0.0228,0.0214,0.0194,0.0182,0.0173,0.0189,0.0157,0.0181,0.0217,0.0191,0.0194,0.0195,0.017,0.0169,0.0186,0.0186,0.0186,0,0.0253,0.0282,0.0277,0.0295,0.0303,0.0283,0.0302,0.0294,0.0278,0.028,0.0259,0.0232,0.0209,0.0211,0.0214,0.0199,0.0178,0.0203,0.0197,0.0198,0.0199,0.0173,0.0171,0.0189,0.0188,0.0188,0.0188,0,0.0281,0.0305,0.0315,0.0341,0.0345,0.0358,0.0352,0.0351,0.034,0.0333,0.0324,0.0287,0.0274,0.026,0.0242,0.0241,0.0222,0.0203,0.0188,0.0205,0.0176,0.0173,0.0192,0.0191,0.0191,0.019,0,0,0.029,0.033,0.0335,0.0362,0.0375,0.0386,0.0397,0.0409,0.0429,0.0395,0.0409,0.0374,0.0351,0.034,0.0308,0.0284,0.0266,0.0251,0.0249,0.0231,0.0209,0.0195,0.019,0.0245,0.0244,0.0244,0.0187,0,0.0317,0.037,0.0378,0.0428,0.0458,0.0452,0.047,0.0475,0.0473,0.0479,0.0433,0.0432,0.0383,0.0378,0.0345,0.0289,0.0262,0.0284,0.0192,0.0189,0.0178,0.0187,0.0199,0.0149,0.0184,0.0183,0.0183,0,0.0347,0.0385,0.0438,0.0492,0.0503,0.0525,0.0562,0.0579,0.0579,0.0573,0.0556,0.052,0.0484,0.0435,0.0345,0.0361,0.0294,0.0241,0.0237,0.0206,0.017,0.0137,0.0142,0.0178,0.0178,0.0179,0.0179,0,0.0372,0.0429,0.048,0.0497,0.0546,0.0566,0.0591,0.0609,0.0643,0.0639,0.0654,0.0595,0.0573,0.0479,0.0367,0.0357,0.026,0.0232,0.0153,0.0151,0.0136,0.0133,0.0168,0.0168,0.0168,0.0168,0.0168,0,0.0408,0.045,0.0498,0.053,0.0597,0.061,0.0677,0.069,0.072,0.0769,0.0711,0.0724,0.0583,0.0509,0.0393,0.0269,0.0279,0.0165,0.0138,0.0153,0.0152,0.0157,0.0156,0.0166,0.0166,0.0167,0.0167,0,0.0431,0.046,0.0529,0.0589,0.0616,0.0664,0.0745,0.0795,0.0811,0.0868,0.0869,0.0823,0.0729,0.0581,0.0429,0.0317,0.019,0.0142,0.0169,0.0147,0.009,0.0092,0.0051,0.005,0.0049,0.0048,0.0048,0,0.0446,0.0485,0.0577,0.0626,0.0659,0.0734,0.0792,0.0838,0.0899,0.0933,0.0967,0.0895,0.0864,0.0637,0.0423,0.0221,0.0191,0.0091,0.0074,0.0101,0.0079,0.0083,0.0087,0.0068,0.0068,0.0068,0.0067,0,0.0483,0.0514,0.0573,0.0678,0.0751,0.0842,0.0929,0.099,0.1042,0.1092,0.1132,0.1108,0.0895,0.0698,0.0416,0.0271,0.0123,0.0079,0.0101,0.01,0.0114,0.0093,0.0097,0.0065,0.0065,0.0065,0.0066,0.0066,0.0509,0.0557,0.0639,0.0738,0.0827,0.0938,0.1018,0.1109,0.1214,0.1284,0.1251,0.1216,0.098,0.0629,0.0382,0.0111,0.0125,0.0023,0.0025,0.0027,0.0044,0.0056,-0.0001,-0.0001,-0.0001,-0.0001,-0.0002,0,0.0547,0.0606,0.0695,0.0816,0.0912,0.0959,0.1102,0.1184,0.1309,0.1357,0.1387,0.116,0.094,0.0664,0.0274,0.0048,0.0025,-0.0037,-0.001,-0.0006,-0.0002,0.0013,-0.004,-0.0041,-0.0042,-0.0042,0,0,0.057,0.0657,0.0704,0.0864,0.095,0.1087,0.1171,0.1294,0.1369,0.1429,0.1402,0.1345,0.102,0.0731,0.0418,0.0194,0.0145,0.014,0.0194,0.0268,0.0275,0.0053,0.0085,0,0,0,0,0]}],[{"header":{"parameterUnit":"m.s-1","parameterCategory":2,"la1":30.2991,"la2":30.254,"lo1":-89.0895,"lo2":-89.0444,"dy":0.0017,"dx":0.0017,"nx":28,"ny":28,"refTime":"2024-02-19T09:00:00:Z","depth":"4","parameterNumber":2,"parameterNumberName":"U-component_of_CURRENTS"},"data":[0,0,0,0,0,0,0,0,0,0,0,0,0,0,0,0,0,0,0,0,0,0,0,0,0,0,0,0,0,0,0,0,0,0,0,0,0,0,0,0,0,0,0,0,0,0,0,0,0,0,0,0,0,0,0,0,0,0,0.153,0.1531,0,0.157,0.157,0.157,0.1605,0.1606,0.1606,0.1607,0.1657,0.1657,0.1658,0,0,0,0,0,0,0,0,0,0,0,0,0,0.1425,0.1427,0.153,0.1531,0.1532,0.157,0.157,0.157,0.1605,0.1606,0.1607,0.1607,0.1656,0.1657,0.1658,0,0,0,0,0,0,0,0,0,0,0,0,0,0.1466,0.1427,0.153,0.1556,0.1559,0.157,0.157,0.157,0.1605,0.1606,0.1607,0.1608,0.1656,0.1657,0.1658,0.1645,0,0,0.1661,0.1662,0,0,0,0,0,0,0,0,0.1463,0.1469,0.1551,0.1554,0.1557,0.1586,0.1551,0.1597,0.1605,0.1584,0.1607,0.1608,0.1635,0.1638,0.1639,0.1647,0.1649,0.1661,0.1662,0.1662,0.1663,0,0,0,0,0,0,0,0.146,0.1467,0.1543,0.1552,0.1556,0.1545,0.1552,0.1559,0.1601,0.1586,0.1589,0.1598,0.1637,0.1638,0.164,0.165,0.1661,0.1662,0.1663,0.1663,0.1751,0.1753,0,0,0,0,0,0,0.1464,0.1465,0.1542,0.1544,0.1515,0.1547,0.1554,0.1573,0.1601,0.1607,0.1597,0.16,0.1635,0.1639,0.1642,0.1717,0.1662,0.1663,0.1664,0.1749,0.1751,0.1753,0,0,0,0,0,0,0.1462,0.1471,0.154,0.1507,0.1516,0.1548,0.1569,0.1574,0.1609,0.161,0.1616,0.1631,0.1636,0.1641,0.1682,0.1716,0.1664,0.1665,0.1747,0.175,0.1752,0.1809,0,0,0,0,0,0,0.1458,0.147,0.1499,0.1508,0.1518,0.1569,0.1568,0.1574,0.1612,0.1616,0.1641,0.1644,0.1637,0.168,0.1683,0.1716,0.1666,0.1745,0.1749,0.1752,0.1805,0.1813,0.182,0,0,0,0,0,0.1455,0.1483,0.15,0.151,0.1553,0.157,0.1574,0.1597,0.1613,0.1632,0.1654,0.1645,0.1702,0.1682,0.1685,0.1719,0.1744,0.1748,0.1751,0.1801,0.1811,0.182,0,0,0,0,0,0,0.1442,0.1489,0.1509,0.1549,0.1571,0.1578,0.1602,0.1616,0.1647,0.1663,0.1663,0.1668,0.1718,0.1712,0.169,0.1756,0.1723,0.1728,0.176,0.177,0.1777,0.1784,0.1667,0,0,0,0,0,0.1456,0.1502,0.1526,0.1562,0.1577,0.1597,0.1614,0.163,0.1651,0.1667,0.1684,0.1706,0.1729,0.1746,0.176,0.1793,0.179,0.1819,0.1826,0.1833,0.1841,0.1868,0.1878,0.1766,0.1766,0.1766,0,0,0.146,0.1495,0.152,0.1565,0.1585,0.1609,0.161,0.1646,0.1673,0.1667,0.1719,0.1735,0.1745,0.1784,0.1806,0.1788,0.1864,0.1838,0.1843,0.1848,0.1873,0.1884,0.1893,0.1769,0.1768,0.1768,0,0,0.1476,0.1524,0.1561,0.1586,0.163,0.164,0.1659,0.1687,0.1714,0.1757,0.1765,0.1805,0.1835,0.1849,0.1858,0.1917,0.1905,0.1928,0.197,0.1996,0.2006,0.2014,0.2023,0.2032,0.193,0.193,0.193,0,0.1478,0.153,0.157,0.1604,0.1629,0.1659,0.1686,0.1713,0.1754,0.178,0.1787,0.1855,0.1865,0.1912,0.1937,0.1935,0.1943,0.1932,0.2006,0.2014,0.2021,0.2029,0.2037,0.1933,0.1933,0.1933,0.1932,0,0.1511,0.156,0.1581,0.1642,0.1671,0.1702,0.1739,0.178,0.1817,0.1842,0.1911,0.193,0.197,0.1983,0.198,0.2041,0.2028,0.2012,0.1979,0.2035,0.204,0.2048,0.1938,0.1937,0.1936,0.1935,0,0,0.1487,0.1585,0.1596,0.1629,0.1696,0.1715,0.1775,0.1826,0.1871,0.1923,0.1978,0.203,0.2053,0.2066,0.2073,0.2099,0.2156,0.2085,0.2085,0.2089,0.2211,0.2062,0.2056,0.2156,0.2158,0.216,0.2192,0,0.1497,0.1569,0.1616,0.1674,0.1706,0.1758,0.1808,0.1866,0.1917,0.1977,0.2023,0.2079,0.208,0.2111,0.2141,0.2155,0.2181,0.2149,0.2161,0.2161,0.2017,0.2061,0.2165,0.2198,0.22,0.2201,0.2202,0,0.1506,0.1557,0.1621,0.1699,0.1718,0.1762,0.1846,0.1894,0.1985,0.203,0.21,0.2134,0.2201,0.2185,0.2247,0.223,0.2233,0.2234,0.2235,0.2081,0.2026,0.2131,0.2216,0.2215,0.2214,0.2213,0.2212,0,0.1465,0.1553,0.1608,0.1636,0.1729,0.1775,0.1828,0.1919,0.1973,0.2072,0.2123,0.2197,0.2249,0.2273,0.2293,0.228,0.2342,0.2315,0.2182,0.2172,0.2271,0.2262,0.2354,0.2354,0.2354,0.2354,0.2354,0,0.1445,0.1488,0.1602,0.1629,0.1694,0.1767,0.1845,0.1908,0.2013,0.2066,0.2154,0.2197,0.2278,0.2319,0.2318,0.2273,0.2364,0.2196,0.2172,0.2293,0.2287,0.2276,0.2266,0.2355,0.2355,0.2355,0.2355,0,0.1386,0.1465,0.1527,0.1639,0.1679,0.1727,0.1854,0.19,0.2013,0.2085,0.2123,0.2232,0.2269,0.2321,0.2359,0.2289,0.2266,0.2227,0.236,0.2343,0.2072,0.2065,0.2071,0.2066,0.2062,0.2059,0.2056,0,0.1361,0.1394,0.1521,0.1561,0.1618,0.1707,0.176,0.1887,0.1933,0.2074,0.2089,0.2185,0.223,0.2172,0.2234,0.2216,0.219,0.2161,0.2108,0.2067,0.2045,0.2045,0.2044,0.2049,0.2048,0.2047,0.2046,0,0.1302,0.1365,0.1417,0.1503,0.157,0.163,0.1718,0.1744,0.1868,0.199,0.2003,0.2016,0.2054,0.2071,0.2081,0.2063,0.2166,0.2116,0.2124,0.2075,0.204,0.2022,0.2026,0.2031,0.2033,0.2035,0.2036,0,0.1259,0.1279,0.1363,0.142,0.1499,0.1521,0.1584,0.1629,0.1694,0.1842,0.1839,0.1928,0.203,0.1992,0.1996,0.1973,0.1933,0.1856,0.1876,0.1893,0.1817,0.1746,0.163,0,0,0,0,0,0.1206,0.1218,0.127,0.1321,0.1391,0.1436,0.1535,0.1597,0.1714,0.1674,0.1755,0.1773,0.1775,0.1829,0.1766,0.1912,0.1943,0.1829,0.1866,0.1951,0.1968,0.1894,0,0,0,0,0,0,0.1171,0.1219,0.1233,0.1224,0.1237,0.1296,0.1352,0.1434,0.1425,0.1551,0.1568,0.1657,0.1697,0.179,0.173,0.1744,0.1726,0.1893,0.1888,0.1941,0.1957,0.197,0.19,0,0,0,0,0]},{"header":{"parameterUnit":"m.s-1","parameterCategory":2,"la1":30.2991,"la2":30.254,"lo1":-89.0895,"lo2":-89.0444,"dy":0.0017,"dx":0.0017,"nx":28,"ny":28,"refTime":"2024-02-19T09:00:00:Z","depth":"4","parameterNumber":3,"parameterNumberName":"V-component_of_CURRENTS"},"data":[0,0,0,0,0,0,0,0,0,0,0,0,0,0,0,0,0,0,0,0,0,0,0,0,0,0,0,0,0,0,0,0,0,0,0,0,0,0,0,0,0,0,0,0,0,0,0,0,0,0,0,0,0,0,0,0,0,0,0.0203,0.0203,0,0.0182,0.0182,0.0182,0.0169,0.0169,0.0169,0.0169,0.0143,0.0142,0.0141,0,0,0,0,0,0,0,0,0,0,0,0,0,0.0192,0.0192,0.0203,0.0203,0.0203,0.0182,0.0182,0.0182,0.0169,0.0169,0.0169,0.0169,0.0143,0.0142,0.0141,0,0,0,0,0,0,0,0,0,0,0,0,0,0.0186,0.0193,0.0203,0.0194,0.0193,0.0182,0.0182,0.0181,0.0169,0.0169,0.0169,0.0169,0.0143,0.0142,0.0141,0.0137,0,0,0.0138,0.0138,0,0,0,0,0,0,0,0,0.0187,0.0187,0.0196,0.0195,0.0193,0.0178,0.0168,0.0166,0.0169,0.0178,0.0169,0.0169,0.0154,0.0152,0.0149,0.0136,0.0135,0.0138,0.0138,0.0137,0.0137,0,0,0,0,0,0,0,0.0187,0.0187,0.0195,0.0195,0.0194,0.0177,0.0176,0.0168,0.0167,0.0177,0.0176,0.0174,0.0154,0.0149,0.0148,0.0134,0.0138,0.0137,0.0137,0.0136,0.0122,0.0122,0,0,0,0,0,0,0.0192,0.0188,0.0195,0.0194,0.019,0.0177,0.0177,0.0183,0.0167,0.0164,0.0174,0.0174,0.0151,0.0149,0.0147,0.0154,0.0137,0.0136,0.0136,0.0122,0.0122,0.0122,0,0,0,0,0,0,0.0192,0.0194,0.0196,0.019,0.0189,0.0178,0.0185,0.0183,0.0182,0.0165,0.0162,0.0177,0.0151,0.0148,0.0145,0.0153,0.0136,0.0135,0.0121,0.0122,0.0122,0.016,0,0,0,0,0,0,0.0192,0.0194,0.0201,0.0191,0.019,0.0195,0.0185,0.0182,0.0181,0.018,0.0166,0.0163,0.0151,0.0147,0.0144,0.0151,0.0134,0.0121,0.0121,0.0122,0.0159,0.0162,0.0164,0,0,0,0,0,0.0192,0.0202,0.0202,0.0202,0.02,0.0195,0.0193,0.0184,0.0181,0.0183,0.0175,0.0164,0.0147,0.0146,0.0143,0.015,0.0121,0.0121,0.0122,0.0157,0.0161,0.0164,0,0,0,0,0,0,0.0197,0.0201,0.0201,0.0211,0.0206,0.0193,0.0194,0.0189,0.0183,0.0184,0.0168,0.0165,0.0163,0.0151,0.0151,0.0146,0.0131,0.0131,0.0159,0.0163,0.0166,0.0177,0.0133,0,0,0,0,0,0.0202,0.0214,0.021,0.0217,0.0217,0.0207,0.0204,0.02,0.0193,0.0191,0.0181,0.017,0.0162,0.0159,0.0148,0.0148,0.0129,0.0149,0.0152,0.0154,0.0161,0.0135,0.0136,0.0123,0.0123,0.0123,0,0,0.0204,0.0209,0.0215,0.0219,0.0215,0.0223,0.0206,0.0206,0.0213,0.0189,0.0195,0.0179,0.0163,0.0162,0.016,0.0155,0.0147,0.0155,0.0157,0.0163,0.0136,0.0137,0.0138,0.0124,0.0124,0.0124,0,0,0.0215,0.0221,0.0234,0.0236,0.0237,0.0234,0.0237,0.023,0.0227,0.0229,0.0213,0.0204,0.0193,0.0182,0.0176,0.0187,0.0162,0.0183,0.021,0.0184,0.0185,0.0186,0.0161,0.0159,0.0186,0.0186,0.0186,0,0.0219,0.0238,0.0235,0.0248,0.0255,0.0243,0.0258,0.0254,0.0247,0.0249,0.0237,0.0219,0.0203,0.0202,0.0206,0.0195,0.0176,0.0199,0.0188,0.0188,0.0188,0.0163,0.0161,0.0188,0.0188,0.0188,0.0187,0,0.0238,0.0257,0.0264,0.0284,0.0288,0.0299,0.0296,0.0299,0.0294,0.029,0.0286,0.0259,0.025,0.024,0.0228,0.0223,0.0208,0.0193,0.0181,0.0192,0.0165,0.0161,0.0191,0.019,0.019,0.0189,0,0,0.0244,0.0274,0.0278,0.0299,0.0311,0.032,0.0331,0.0341,0.0359,0.0336,0.0347,0.0322,0.0307,0.0298,0.0275,0.0252,0.0232,0.0229,0.0226,0.0208,0.0177,0.0164,0.0159,0.0215,0.0215,0.0215,0.0157,0,0.0263,0.0302,0.0309,0.0349,0.0371,0.037,0.0386,0.0392,0.0393,0.0398,0.0363,0.0365,0.033,0.0328,0.0299,0.0252,0.0226,0.0249,0.0166,0.0164,0.0154,0.0156,0.0214,0.0155,0.0154,0.0153,0.0153,0,0.0282,0.031,0.0351,0.0396,0.0405,0.0426,0.0457,0.0473,0.0474,0.0471,0.0458,0.0432,0.0401,0.0366,0.0286,0.0304,0.0247,0.0203,0.0199,0.0174,0.0146,0.0141,0.0146,0.0147,0.0147,0.0148,0.0148,0,0.0296,0.0342,0.0381,0.0395,0.0436,0.0456,0.048,0.0497,0.0525,0.0524,0.0535,0.0487,0.0469,0.039,0.0296,0.0294,0.02,0.0183,0.0115,0.0113,0.0125,0.0125,0.0124,0.0124,0.0124,0.0124,0.0124,0,0.0317,0.0351,0.0395,0.0419,0.0475,0.049,0.0548,0.0561,0.0587,0.0624,0.058,0.0584,0.0475,0.0408,0.0313,0.0205,0.021,0.0122,0.0099,0.0142,0.0145,0.0122,0.0123,0.0122,0.0122,0.0123,0.0123,0,0.0325,0.0352,0.0407,0.0461,0.0487,0.0528,0.0603,0.0643,0.0659,0.0701,0.0703,0.0659,0.0574,0.0454,0.0325,0.0237,0.0128,0.0086,0.0144,0.0124,0.0053,0.0057,0.001,0.001,0.0009,0.0008,0.0008,0,0.0331,0.036,0.0442,0.0485,0.0515,0.0582,0.0633,0.0677,0.0723,0.0746,0.0764,0.0702,0.0651,0.046,0.033,0.0145,0.0114,0.0051,0.0049,0.006,0.0042,0.0047,0.0051,0.0006,0.0006,0.0006,0.0006,0,0.0346,0.0376,0.0424,0.0515,0.058,0.0656,0.073,0.0767,0.0812,0.0824,0.0812,0.0717,0.0619,0.0467,0.0322,0.0187,0.0088,0.0042,0.0043,0.0041,0.0055,0.0039,0.0044,0.0003,0.0004,0.0004,0.0004,0,0.0358,0.0393,0.0462,0.0543,0.0627,0.0706,0.0745,0.0795,0.0839,0.0856,0.0849,0.0741,0.0682,0.0489,0.0356,0.0222,0.0186,0.0129,0.0125,0.0126,0.0171,0.0207,0.0185,0,0,0,0,0,0.0369,0.0414,0.0486,0.0579,0.0661,0.0715,0.0802,0.0833,0.0871,0.0866,0.086,0.0766,0.0577,0.0505,0.0369,0.0335,0.0158,0.0169,0.0089,-0.0011,-0.0008,0.0023,0,0,0,0,0,0,0.0378,0.0444,0.0484,0.0593,0.0658,0.0756,0.0812,0.084,0.0841,0.0852,0.0761,0.0716,0.0541,0.0651,0.0361,0.0322,0.0248,0.0087,0.0084,-0.0013,-0.001,-0.0008,0.0026,0,0,0,0,0]}]]